| time (UTC) | temp F | wind direction | speed MPH | gust MPH | rain 1hr in | rain 24hr in | rain mn in | humidity % | barometer mb |
| 20260507051348 | 62 | 259 | 9.0 | 14.0 | 0.00 | 0.00 | 0.00 | 50 | 1009.8 |
| 20260507045948 | 63 | 269 | 9.0 | 17.0 | 0.00 | 0.00 | 0.00 | 47 | 1009.6 |
| 20260507044548 | 63 | 292 | 9.0 | 13.0 | 0.00 | 0.00 | 0.00 | 47 | 1009.7 |
| 20260507043148 | 64 | 308 | 7.0 | 17.0 | 0.00 | 0.00 | 0.00 | 45 | 1009.9 |
| 20260507041748 | 65 | 342 | 3.0 | 7.0 | 0.00 | 0.00 | 0.00 | 42 | 1009.8 |
| 20260507040348 | 66 | 6 | 1.0 | 4.0 | 0.00 | 0.00 | 0.00 | 39 | 1009.7 |
| 20260507034948 | 67 | 60 | 1.0 | 4.0 | 0.00 | 0.00 | 0.00 | 37 | 1009.6 |
| 20260507033548 | 67 | 79 | 3.0 | 9.0 | 0.00 | 0.00 | 0.00 | 39 | 1009.3 |
| 20260507032148 | 68 | 341 | 6.0 | 11.0 | 0.00 | 0.00 | 0.00 | 37 | 1009.2 |
| 20260507030748 | 68 | 316 | 6.0 | 11.0 | 0.00 | 0.00 | 0.00 | 37 | 1009.1 |
| 20260507025348 | 69 | 322 | 9.0 | 14.0 | 0.00 | 0.00 | 0.00 | 37 | 1008.8 |
| 20260507023948 | 69 | 312 | 9.0 | 15.0 | 0.00 | 0.00 | 0.00 | 37 | 1008.8 |
| 20260507022548 | 70 | 300 | 9.0 | 16.0 | 0.00 | 0.00 | 0.00 | 36 | 1009.0 |
| 20260507021149 | 70 | 283 | 8.0 | 12.0 | 0.00 | 0.00 | 0.00 | 36 | 1009.1 |
| 20260507015749 | 71 | 269 | 10.0 | 14.0 | 0.00 | 0.00 | 0.00 | 35 | 1009.2 |
| 20260507014349 | 71 | 267 | 11.0 | 18.0 | 0.00 | 0.00 | 0.00 | 35 | 1009.2 |
| 20260507012949 | 71 | 300 | 9.0 | 15.0 | 0.00 | 0.00 | 0.00 | 35 | 1009.1 |
| 20260507011549 | 70 | 274 | 8.0 | 12.0 | 0.00 | 0.00 | 0.00 | 34 | 1008.9 |
| 20260507010149 | 70 | 256 | 9.0 | 13.0 | 0.00 | 0.00 | 0.00 | 36 | 1009.0 |
| 20260507004749 | 70 | 287 | 9.0 | 13.0 | 0.00 | 0.00 | 0.00 | 36 | 1008.8 |
| 20260507003349 | 70 | 302 | 10.0 | 18.0 | 0.00 | 0.00 | 0.00 | 37 | 1008.7 |
| 20260507001949 | 71 | 285 | 11.0 | 17.0 | 0.00 | 0.00 | 0.00 | 38 | 1008.6 |
| 20260507000549 | 71 | 291 | 11.0 | 17.0 | 0.00 | 0.00 | 0.00 | 38 | 1008.5 |
| 20260506235149 | 71 | 302 | 13.0 | 19.0 | 0.00 | 0.00 | 0.00 | 38 | 1008.3 |
| 20260506233749 | 72 | 287 | 12.0 | 18.0 | 0.00 | 0.00 | 0.00 | 38 | 1008.1 |
| 20260506232349 | 72 | 276 | 13.0 | 23.0 | 0.00 | 0.00 | 0.00 | 39 | 1008.1 |
| 20260506230949 | 73 | 293 | 14.0 | 25.0 | 0.00 | 0.00 | 0.00 | 37 | 1008.1 |
| 20260506225549 | 73 | 279 | 13.0 | 23.0 | 0.00 | 0.00 | 0.00 | 35 | 1008.0 |
| 20260506224150 | 74 | 297 | 16.0 | 27.0 | 0.00 | 0.00 | 0.00 | 35 | 1008.1 |
| 20260506222750 | 75 | 314 | 14.0 | 23.0 | 0.00 | 0.00 | 0.00 | 34 | 1008.2 |
| 20260506221350 | 76 | 307 | 14.0 | 23.0 | 0.00 | 0.00 | 0.00 | 31 | 1008.2 |
| 20260506215950 | 75 | 315 | 14.0 | 22.0 | 0.00 | 0.00 | 0.00 | 32 | 1008.2 |
| 20260506214550 | 75 | 299 | 16.0 | 24.0 | 0.00 | 0.00 | 0.00 | 40 | 1008.2 |
| 20260506213150 | 76 | 305 | 14.0 | 21.0 | 0.00 | 0.00 | 0.00 | 33 | 1008.2 |
| 20260506211750 | 76 | 302 | 16.0 | 25.0 | 0.00 | 0.00 | 0.00 | 33 | 1008.4 |
| 20260506210350 | 78 | 311 | 13.0 | 23.0 | 0.00 | 0.00 | 0.00 | 31 | 1008.1 |
| 20260506204950 | 79 | 304 | 10.0 | 21.0 | 0.00 | 0.00 | 0.00 | 35 | 1007.9 |
| 20260506203550 | 79 | 321 | 8.0 | 14.0 | 0.00 | 0.00 | 0.00 | 32 | 1007.9 |
| 20260506202150 | 80 | 320 | 7.0 | 13.0 | 0.00 | 0.00 | 0.00 | 35 | 1007.9 |
| 20260506200750 | 79 | 285 | 9.0 | 16.0 | 0.00 | 0.00 | 0.00 | 35 | 1008.0 |
| 20260506195350 | 78 | 293 | 11.0 | 17.0 | 0.00 | 0.00 | 0.00 | 33 | 1007.9 |
| 20260506193950 | 79 | 308 | 10.0 | 15.0 | 0.00 | 0.00 | 0.00 | 34 | 1008.1 |
| 20260506192550 | 79 | 315 | 9.0 | 14.0 | 0.00 | 0.00 | 0.00 | 32 | 1008.3 |
| 20260506191150 | 78 | 334 | 10.0 | 14.0 | 0.00 | 0.00 | 0.00 | 33 | 1008.2 |
| 20260506185751 | 78 | 311 | 9.0 | 15.0 | 0.00 | 0.00 | 0.00 | 36 | 1008.1 |
| 20260506184351 | 79 | 205 | 6.0 | 15.0 | 0.00 | 0.00 | 0.00 | 33 | 1008.3 |
| 20260506182951 | 78 | 242 | 3.0 | 5.0 | 0.00 | 0.00 | 0.00 | 36 | 1008.3 |
| 20260506181551 | 78 | 345 | 2.0 | 5.0 | 0.00 | 0.00 | 0.00 | 39 | 1008.4 |
| 20260506180151 | 76 | 172 | 7.0 | 11.0 | 0.00 | 0.00 | 0.00 | 39 | 1008.5 |
| 20260506174751 | 77 | 134 | 4.0 | 8.0 | 0.00 | 0.00 | 0.00 | 36 | 1008.5 |
| 20260506173351 | 76 | 179 | 5.0 | 10.0 | 0.00 | 0.00 | 0.00 | 39 | 1008.5 |
| 20260506171951 | 75 | 100 | 4.0 | 8.0 | 0.00 | 0.00 | 0.00 | 36 | 1008.7 |
| 20260506170551 | 75 | 118 | 5.0 | 8.0 | 0.00 | 0.00 | 0.00 | 38 | 1008.7 |
| 20260506165151 | 74 | 144 | 6.0 | 10.0 | 0.00 | 0.00 | 0.00 | 41 | 1008.7 |
| 20260506163751 | 74 | 117 | 4.0 | 7.0 | 0.00 | 0.00 | 0.00 | 43 | 1008.7 |
| 20260506162351 | 74 | 119 | 4.0 | 5.0 | 0.00 | 0.00 | 0.00 | 42 | 1008.7 |
| 20260506160951 | 74 | 174 | 5.0 | 9.0 | 0.00 | 0.00 | 0.00 | 43 | 1008.8 |
| 20260506155551 | 74 | 290 | 6.0 | 11.0 | 0.00 | 0.00 | 0.00 | 39 | 1009.0 |
| 20260506154151 | 73 | 303 | 8.0 | 12.0 | 0.00 | 0.00 | 0.00 | 40 | 1009.2 |
| 20260506152752 | 72 | 304 | 7.0 | 13.0 | 0.00 | 0.00 | 0.00 | 42 | 1009.2 |
| 20260506151352 | 70 | 301 | 9.0 | 12.0 | 0.00 | 0.00 | 0.00 | 46 | 1009.2 |
| 20260506145952 | 70 | 288 | 9.0 | 16.0 | 0.00 | 0.00 | 0.00 | 45 | 1009.2 |
| 20260506144552 | 69 | 344 | 11.0 | 16.0 | 0.00 | 0.00 | 0.00 | 44 | 1009.1 |
| 20260506143152 | 68 | 316 | 10.0 | 17.0 | 0.00 | 0.00 | 0.00 | 45 | 1009.0 |
| 20260506141752 | 68 | 308 | 7.0 | 13.0 | 0.00 | 0.00 | 0.00 | 45 | 1009.0 |
| 20260506140352 | 68 | 304 | 7.0 | 14.0 | 0.00 | 0.00 | 0.00 | 45 | 1009.1 |
| 20260506134952 | 68 | 304 | 8.0 | 12.0 | 0.00 | 0.00 | 0.00 | 43 | 1009.0 |
| 20260506133552 | 68 | 316 | 9.0 | 15.0 | 0.00 | 0.00 | 0.00 | 44 | 1008.9 |
| 20260506132152 | 67 | 311 | 7.0 | 12.0 | 0.00 | 0.00 | 0.00 | 42 | 1008.8 |
| 20260506130752 | 66 | 338 | 5.0 | 10.0 | 0.00 | 0.00 | 0.00 | 43 | 1008.8 |
| 20260506125352 | 66 | 322 | 6.0 | 9.0 | 0.00 | 0.00 | 0.00 | 44 | 1008.5 |
| 20260506123952 | 66 | 304 | 6.0 | 11.0 | 0.00 | 0.00 | 0.00 | 43 | 1008.5 |
| 20260506122552 | 66 | 307 | 6.0 | 11.0 | 0.00 | 0.00 | 0.00 | 42 | 1008.4 |
| 20260506121152 | 66 | 302 | 4.0 | 7.0 | 0.00 | 0.00 | 0.00 | 41 | 1008.4 |
| 20260506115753 | 67 | 290 | 4.0 | 10.0 | 0.00 | 0.00 | 0.00 | 41 | 1008.4 |
| 20260506114353 | 67 | 340 | 6.0 | 12.0 | 0.00 | 0.00 | 0.00 | 40 | 1008.2 |
| 20260506112953 | 67 | 310 | 4.0 | 8.0 | 0.00 | 0.00 | 0.00 | 39 | 1008.2 |
| 20260506111553 | 67 | 354 | 5.0 | 9.0 | 0.00 | 0.00 | 0.00 | 39 | 1008.1 |
| 20260506110153 | 67 | 330 | 6.0 | 9.0 | 0.00 | 0.00 | 0.00 | 37 | 1008.0 |
| 20260506104753 | 66 | 332 | 5.0 | 9.0 | 0.00 | 0.00 | 0.00 | 41 | 1007.8 |
| 20260506103353 | 66 | 320 | 5.0 | 9.0 | 0.00 | 0.00 | 0.00 | 42 | 1007.8 |
| 20260506101953 | 65 | 300 | 5.0 | 10.0 | 0.00 | 0.00 | 0.00 | 43 | 1007.8 |
| 20260506100553 | 65 | 346 | 4.0 | 6.0 | 0.00 | 0.00 | 0.00 | 43 | 1007.8 |
| 20260506095153 | 64 | 304 | 4.0 | 6.0 | 0.00 | 0.00 | 0.00 | 44 | 1007.7 |
| 20260506093753 | 62 | 339 | 3.0 | 6.0 | 0.00 | 0.00 | 0.00 | 47 | 1007.8 |
| 20260506092353 | 64 | 299 | 3.0 | 6.0 | 0.00 | 0.00 | 0.00 | 42 | 1007.8 |
| 20260506090953 | 65 | 290 | 4.0 | 6.0 | 0.00 | 0.00 | 0.00 | 40 | 1007.7 |
| 20260506085553 | 67 | 275 | 3.0 | 4.0 | 0.00 | 0.00 | 0.00 | 39 | 1007.7 |
| 20260506084154 | 67 | 290 | 3.0 | 7.0 | 0.00 | 0.00 | 0.00 | 38 | 1007.6 |
| 20260506082754 | 68 | 328 | 5.0 | 11.0 | 0.00 | 0.00 | 0.00 | 37 | 1007.5 |
| 20260506081354 | 69 | 319 | 6.0 | 10.0 | 0.00 | 0.00 | 0.00 | 37 | 1007.4 |
| 20260506073154 | 68 | 313 | 8.0 | 12.0 | 0.00 | 0.00 | 0.00 | 41 | 1007.1 |
| 20260506071754 | 69 | 320 | 6.0 | 12.0 | 0.00 | 0.00 | 0.00 | 40 | 1007.1 |
| 20260506070354 | 69 | 333 | 7.0 | 11.0 | 0.00 | 0.00 | 0.00 | 38 | 1006.9 |
| 20260506062154 | 69 | 282 | 7.0 | 13.0 | 0.00 | 0.00 | 0.00 | 41 | 1006.8 |
| 20260506060754 | 69 | 314 | 8.0 | 13.0 | 0.00 | 0.00 | 0.00 | 42 | 1006.7 |